Location: Avully
(45.9633°N, 6.0228°E)
Time: 22:05:22
(UTC+00:00)

Cosmos 2360 Rocket - Pass Details

Date: 11 August 2024
Orbit: 834 x 843 km, 71.0° (Epoch: 10 September)

Event Time Altitude Azimuth Distance (km) Brightness Sun altitude
Exits shadow 02:37:09 - 283° (WNW) 2,775 4.6 -17.1°
Reaches altitude 10° 02:38:43 10° 296° (WNW) 2,466 4.4 -17.0°
Maximum altitude 02:41:18 13° 323° (NW) 2,251 4.5 -16.6°
Drops below altitude 10° 02:43:54 10° 351° (N) 2,469 5.1 -16.3°
Sets 02:47:53 0° 18° (NNE) 3,406 6.5 -15.8°
